Flag Weather past 2 weeks in Edinburgh, Scotland, United Kingdom

Now
37 °F

Passing clouds.


Feels Like: 37 °F
Forecast: 36 / 44 °F
Wind: 2 mph from Southwest

Location: Edinburgh Airport

Current Time: Nov 26, 2014 at 6:52:42 AM

Latest Report: Nov 26, 2014 at 6:20 AM


Visibility: 4 mi

Pressure: 30.04 "Hg

Humidity: 100%

Dew point: 37 °F

Location of EdinburghLocation

Historic Weather in Edinburgh — Graph

°F

Edinburgh temperature yesterday

Maximum temperature yesterday: 46 °F (at 10:50 AM)
Minimum temperature yesterday: 41 °F (at 11:50 PM)
Average temperature yesterday: 45 °F

Past Weeks' High & Low Weather Summary

 TemperatureHumidityPressure
High57 °F (Nov 22, 12:50 PM)100% (Nov 14, 2:50 PM)30.30 "Hg (Nov 14, 2:50 PM)
Low30 °F (Nov 15, 3:20 AM)71% (Nov 12, 10:20 PM)29.24 "Hg (Nov 12, 1:50 PM)
Average46 °F91%29.82 "Hg
* Reported Nov 11 5:20 AM — Nov 26 5:50 AM, Edinburgh, Weather by CustomWeather, © 2014

Note: Actual official high and low records may vary slightly from our data, if they occured in-between our weather recording intervals... More about our weather records

Advertising

Edinburgh weather history for previous 24 hours

 ConditionsComfort  
Time TempWeatherWind HumidityBarometerVisibility
5:50 AM
Nov 26
36 °FPassing clouds.2 mph100%30.04 "HgN/A
5:20 AM36 °FClear.2 mph100%30.04 "Hg4 mi
4:50 AM36 °FLight fog.No wind100%30.07 "Hg2 mi
4:20 AM34 °FLight fog.2 mph100%30.07 "Hg2 mi
3:20 AM34 °FLight fog.2 mph100%30.07 "Hg1 mi
2:50 AM34 °FLight fog.2 mph100%30.07 "Hg1 mi
2:20 AM34 °FPassing clouds.No wind100%30.09 "Hg1 mi
1:50 AM36 °FLight fog.No wind100%30.09 "Hg1 mi
1:20 AM37 °FLight fog.3 mph93%30.09 "Hg1 mi
12:50 AM39 °FPassing clouds.2 mph100%30.09 "Hg1 mi
12:20 AM41 °FFog.2 mph93%30.12 "Hg1 mi
11:50 PM
Nov 25
41 °FFog.3 mph100%30.12 "Hg0 mi
11:20 PM43 °FPassing clouds.No wind100%30.12 "Hg5 mi
10:50 PM45 °FPassing clouds.3 mph93%30.12 "HgN/A
10:20 PM45 °FPassing clouds.5 mph93%30.12 "HgN/A
9:50 PM45 °FPassing clouds.3 mph100%30.15 "HgN/A
9:20 PM45 °FPassing clouds.2 mph100%30.15 "Hg4 mi
8:50 PM45 °FOvercast.No wind100%30.15 "Hg4 mi
8:20 PM45 °FPassing clouds.3 mph100%30.15 "Hg4 mi
7:50 PM45 °FPassing clouds.3 mph100%30.15 "Hg4 mi
7:20 PM45 °FPassing clouds.5 mph100%30.15 "Hg4 mi
6:50 PM46 °FLight rain. Passing clouds.7 mph93%30.15 "Hg2 mi
6:20 PM46 °FLight rain. Fog.6 mph93%30.15 "Hg2 mi
5:50 PM46 °FLight rain. Overcast.5 mph93%30.18 "Hg5 mi
5:20 PM46 °FMostly cloudy.5 mph93%30.18 "Hg6 mi
4:50 PM46 °FPassing clouds.5 mph93%30.18 "HgN/A
4:20 PM46 °FPartly cloudy.6 mph93%30.18 "HgN/A
3:50 PM46 °FDrizzle. Partly sunny.5 mph93%30.18 "Hg3 mi
3:20 PM46 °FBroken clouds.5 mph93%30.18 "HgN/A
2:50 PM46 °FPartly sunny.6 mph93%30.18 "HgN/A
2:20 PM46 °FPartly sunny.6 mph93%30.18 "Hg5 mi
1:50 PM46 °FPartly sunny.6 mph93%30.21 "Hg5 mi
1:20 PM46 °FBroken clouds.6 mph93%30.21 "Hg5 mi
12:50 PM46 °FMostly cloudy.7 mph93%30.21 "Hg4 mi
12:20 PM46 °FBroken clouds.6 mph93%30.21 "HgN/A
11:50 AM46 °FBroken clouds.3 mph93%30.24 "Hg5 mi
11:20 AM46 °FPartly sunny.6 mph93%30.24 "Hg4 mi
10:50 AM46 °FScattered clouds.3 mph93%30.24 "HgN/A
10:20 AM45 °FScattered clouds.3 mph100%30.24 "HgN/A
9:50 AM45 °FBroken clouds.2 mph93%30.24 "HgN/A
9:20 AM45 °FBroken clouds.2 mph93%30.24 "HgN/A
8:50 AM43 °FPartly sunny.No wind93%30.24 "Hg6 mi
8:20 AM43 °FPartly sunny.2 mph100%30.24 "HgN/A
7:50 AM43 °FPassing clouds.No wind100%30.24 "HgN/A
7:20 AM43 °FPassing clouds.2 mph100%30.24 "HgN/A
6:50 AM43 °FPassing clouds.No wind100%30.24 "HgN/A
6:20 AM43 °FOvercast.2 mph93%30.24 "HgN/A
Weather by CustomWeather, © 2014

See weather overviewHow to use our weather pages